Weather History for Milton, FL

Change the Weather History Date:

Thursday, February 27, 2014

  Actual Average (KNSE) Record (KNSE)
Temperature  
Mean Temperature 42 °F -  
Max Temperature 55 °F 64 °F 81 °F (2011)
Min Temperature 30 °F 46 °F 26 °F (2002)
Degree Days  
Heating Degree Days 22    
Moisture  
Dew Point 21 °F    
Average Humidity 47    
Maximum Humidity 82    
Minimum Humidity 22    
Precipitation  
Precipitation 0.00 in - - ()
Sea Level Pressure  
Sea Level Pressure 30.00 in    
Wind  
Wind Speed 11 mph (NNW)    
Max Wind Speed 16 mph    
Max Gust Speed 21 mph    
Visibility 10 miles    
Events      
Averages and records for this station are not official NWS values.
T = Trace of Precipitation, MM = Missing Value Source: NWS Daily Summary

Daily Weather History Graph

Daily Weather History Graph

Search for Another Location

Airport:

Trip Planner

Search our weather history database for the weather conditions in past years. The results will help you decide how hot, cold, wet, or windy it might be!

Date:

Astronomy

Feb. 27, 2014 Rise Set
Actual Time 6:16 AM CST 5:45 PM CST
Civil Twilight 5:52 AM CST 6:09 PM CST
Nautical Twilight 5:24 AM CST 6:37 PM CST
Astronomical Twilight 4:56 AM CST 7:05 PM CST
Moon 4:43 AM CST (2/27) 4:13 PM CST (2/27)
Length of Visible Light 12h 17m
Length of Day
11h 28m
Waning Crescent, 4% of the Moon is Illuminated
Feb 27
Waning Crescent
Mar 1
New
Mar 8
First Quarter
Mar 16
Full
Mar 23
Last Quarter

Hourly Weather History & Observations

Time (CST) Temp. Windchill Dew Point Humidity Pressure Visibility Wind Dir Wind Speed Gust Speed Precip Events Conditions
12:56 AM 39.0 °F 32.3 °F 28.9 °F 67% 29.97 in 10.0 mi North 10.4 mph - N/A   Clear
1:56 AM 37.9 °F 30.5 °F 27.0 °F 65% 29.96 in 10.0 mi NNW 11.5 mph - N/A   Clear
2:56 AM 37.9 °F 30.0 °F 26.1 °F 62% 29.97 in 10.0 mi NNW 12.7 mph - N/A   Clear
3:56 AM 37.0 °F 28.9 °F 25.0 °F 62% 29.99 in 10.0 mi North 12.7 mph - N/A   Clear
4:56 AM 36.0 °F 27.5 °F 21.9 °F 57% 30.00 in 10.0 mi North 12.7 mph 20.7 mph N/A   Clear
5:56 AM 34.0 °F 26.0 °F 21.0 °F 59% 30.02 in 10.0 mi North 10.4 mph - N/A   Mostly Cloudy
6:56 AM 33.1 °F 25.5 °F 21.0 °F 61% 30.04 in 10.0 mi North 9.2 mph - N/A   Scattered Clouds
7:56 AM 37.0 °F 27.7 °F 17.1 °F 44% 30.05 in 10.0 mi North 16.1 mph - N/A   Partly Cloudy
8:56 AM 39.9 °F 32.5 °F 15.1 °F 36% 30.04 in 10.0 mi North 12.7 mph - N/A   Partly Cloudy
9:56 AM 44.1 °F 38.1 °F 15.1 °F 31% 30.05 in 10.0 mi North 11.5 mph - N/A   Partly Cloudy
10:56 AM 46.9 °F - 16.0 °F 29% 30.04 in 10.0 mi NNW 10.4 mph - N/A   Partly Cloudy
11:56 AM 51.1 °F - 15.1 °F 24% 30.01 in 10.0 mi North 12.7 mph 18.4 mph N/A   Scattered Clouds
12:56 PM 53.1 °F - 16.0 °F 23% 30.00 in 10.0 mi NNW 13.8 mph - N/A   Scattered Clouds
1:56 PM 55.0 °F - 16.0 °F 22% 29.98 in 10.0 mi NNW 8.1 mph - N/A   Scattered Clouds
2:56 PM 54.0 °F - 16.0 °F 22% 29.96 in 10.0 mi North 11.5 mph - N/A   Mostly Cloudy
3:56 PM 55.9 °F - 18.0 °F 23% 29.95 in 10.0 mi NNE 10.4 mph - N/A   Scattered Clouds
4:56 PM 54.0 °F - 17.1 °F 23% 29.95 in 10.0 mi NNW 8.1 mph - N/A   Scattered Clouds
5:56 PM 46.9 °F - 21.9 °F 37% 29.96 in 10.0 mi NW 5.8 mph - N/A   Scattered Clouds
6:56 PM 41.0 °F 39.0 °F 25.0 °F 53% 29.98 in 10.0 mi NW 3.5 mph - N/A   Scattered Clouds
7:56 PM 37.0 °F 33.3 °F 27.0 °F 67% 30.01 in 10.0 mi NW 4.6 mph - N/A   Clear
8:56 PM 39.9 °F 34.5 °F 21.9 °F 49% 30.01 in 10.0 mi North 8.1 mph - N/A   Clear
9:56 PM 37.0 °F 31.0 °F 21.9 °F 54% 30.02 in 10.0 mi North 8.1 mph - N/A   Clear
10:56 PM 30.0 °F 24.1 °F 25.0 °F 82% 30.02 in 10.0 mi North 5.8 mph - N/A   Clear
11:56 PM 30.0 °F 24.1 °F 24.1 °F 79% 30.01 in 10.0 mi North 5.8 mph - N/A   Clear